Content
SEND FEEDBACK

Daily
Averages
Monthly
Summary
Spain

MADRID, SPAIN


Home > Europe > Spain
Elevation: 581 meters     Latitude: 40 27N     Longitude: 003 33W

WEATHER
 
SELECT A DAY
Number of Records: 302,750;   Date Range: 7/1/96 - 7/20/14
 
SHARE

PRINT THIS DATA

[ ← Previous Day ]
WEATHER ALMANAC - 5 FEBRUARY, 2013
[ Next Day → ]
[ °F ]   °C
Weather ElementAverageHighLow
Temperature7.3 °C16 °C (5:30 pm)-0.6 °C (7:00 am)
Dewpoint1.8 °C5 °C (1:30 pm)-1.7 °C (7:00 am)
Humidity72.1 %100 % (2:30 am)29 % (7:00 pm)
Barometer1025.1 hPa1030.5 hPa (1:00 am)1020 hPa (11:30 pm)
Wind Speed8.9 km/h27.8 km/h (11:30 pm)
Wind Gust33.3 km/h (5:30 pm)
Weather ElementAverage
Visibility16.3 km
Wind DirectionSW (219.4 °)

Weather ElementTotal
Precipitation---
Heating Degree Days10.6 (Base 18.3)
Averaged from 49 records on 5 February, 2013
WEATHER CONDITIONS BREAKOUT
WIND DIRECTION BREAKOUT
WEATHER BY HOUR - 5 FEBRUARY, 2013
[ °F ]   °C
Local TimeTemperatureDewpointHumidityBarometerVisibilityWind DirectionWind SpeedGust SpeedPrecipitationEventsConditions
12:30 AM4 °C3 °C93 %1028.1 hPaNorth (360°)5.6 km/hClear
1:00 AM3.3 °C1.1 °C78 %1030.5 hPa25.7 kmNorth (350°)7.4 km/h
1:00 AM4 °C3 °C93 %1028.1 hPaNorth (350°)7.4 km/hClear
1:30 AM3 °C2 °C93 %1028.1 hPaNorth (10°)5.6 km/hClear
2:00 AM3 °C2 °C93 %1028.1 hPaCalmClear
2:30 AM2 °C2 °C100 %1027.1 hPaCalmClear
3:00 AM2 °C2 °C100 %1027.1 hPaNorth (350°)5.6 km/hClear
3:30 AM2 °C1 °C93 %1027.1 hPaNNW (330°)5.6 km/hClear
4:00 AM1 °C1 °C100 %1027.1 hPaVariable3.7 km/hClear
4:30 AM1 °C1 °C100 %1027.1 hPaNorth (350°)5.6 km/hClear
5:00 AM1 °C1 °C100 %1027.1 hPaVariable1.9 km/hClear
5:30 AM1 °C1 °C100 %1026.1 hPaNNW (340°)5.6 km/hClear
6:00 AM1 °C1 °C100 %1027.1 hPaNorth (350°)3.7 km/hClear
6:30 AM0 °C0 °C100 %1026.1 hPaNNE (20°)7.4 km/hClear
7:00 AM-0.6 °C-1.7 °C89 %1030.5 hPa14.5 kmNW (320°)7.4 km/h
7:00 AM0 °C0 °C100 %1027.1 hPaNNW (330°)5.6 km/hClear
7:30 AM0 °C0 °C100 %1027.1 hPaNorth (350°)3.7 km/hClear
8:00 AM1 °C1 °C100 %1027.1 hPaNorth (350°)5.6 km/hClear
8:30 AM0 °C0 °C100 %1027.1 hPa10 kmNW (320°)3.7 km/hPartly Cloudy
9:00 AM0 °C0 °C100 %1027.1 hPa10 kmCalmPartly Cloudy
9:30 AM1 °C1 °C100 %1027.1 hPa10 kmNorth (360°)5.6 km/hPartly Cloudy
10:00 AM3 °C2 °C93 %1027.1 hPa10 kmNorth (10°)7.4 km/hPartly Cloudy
10:30 AM4 °C3 °C93 %1027.1 hPaNNW (340°)7.4 km/hClear
11:00 AM7 °C4 °C81 %1026.1 hPaVariable3.7 km/hClear
12:00 PM10 °C4 °C66 %1026.1 hPaSSW (210°)1.9 km/hClear
12:30 PM11 °C4 °C62 %1026.1 hPaVariable3.7 km/hClear
1:00 PM12.2 °C3.9 °C47 %1026.1 hPa19.3 kmSouth (170°)5.6 km/hClear
1:00 PM12 °C4 °C58 %1026.1 hPaVariable3.7 km/hClear
1:30 PM13 °C5 °C58 %1025.1 hPaWest (270°)1.9 km/hClear
2:00 PM14 °C5 °C55 %1025.1 hPaVariable3.7 km/hClear
2:30 PM15 °C5 °C51 %1025.1 hPaNNW (330°)1.9 km/hClear
3:00 PM15 °C4 °C48 %1024 hPaSSW (210°)1.9 km/hClear
3:30 PM15 °C5 °C51 %1023 hPaSouth (190°)9.3 km/hClear
4:30 PM15 °C5 °C51 %1022 hPaSSE (150°)5.6 km/hClear
5:00 PM15 °C3 °C45 %1022 hPaSW (230°)16.7 km/hClear
5:30 PM16 °C1 °C36 %1022 hPaWSW (240°)14.8 km/h33.3 km/hClear
6:00 PM15 °C1 °C39 %1021 hPaWSW (250°)18.5 km/hClear
6:30 PM14 °C0 °C38 %1022 hPaWest (280°)14.8 km/hClear
7:00 PM12.2 °C-0.6 °C29 %1021.7 hPa30.6 kmWest (280°)16.7 km/hScattered Clouds
7:00 PM13 °C0 °C41 %1021 hPaWest (270°)16.7 km/hClear
7:30 PM12 °C-1 °C41 %1021 hPaWest (260°)11.1 km/hClear
8:00 PM10 °C1 °C54 %1021 hPaWest (260°)13 km/hClear
8:30 PM11 °C2 °C54 %1021 hPaWest (270°)18.5 km/hClear
9:00 PM11 °C2 °C54 %1021 hPaWNW (290°)24.1 km/hClear
9:30 PM11 °C2 °C54 %1021 hPaWest (280°)24.1 km/hClear
10:00 PM11 °C1 °C50 %1021 hPaWest (270°)14.8 km/hClear
10:30 PM10 °C1 °C54 %1021 hPaWest (280°)18.5 km/hClear
11:00 PM10 °C0 °C50 %1021 hPaWest (280°)25.9 km/hClear
11:30 PM10 °C-1 °C47 %1020 hPaWNW (290°)27.8 km/hClear
Hourly data recorded from LETO, located 0 kilometers away from Madrid, Spain







STORIES FROM OUR PARTNERS